FW0170 Weather Reports


time (UTC)temp
C
wind
direction
speed
KPH
gust
KPH
rain 1hr
cm
rain 24hr
cm
rain mn
cm
humidity
%
barometer
mb
20260508142505 13 80 0.0 3.2 0.00 0.20 0.20 75 1017.3
20260508142005 13 292 0.0 0.0 0.00 0.20 0.20 75 1017.3
20260508141006 13 102 0.0 0.0 0.00 0.20 0.20 76 1016.9
20260508135506 12 115 0.0 0.0 0.03 0.20 0.20 80 1017.3
20260508135005 12 3 0.0 0.0 0.10 0.20 0.20 82 1017.6
20260508134505 12 331 0.0 3.2 0.15 0.20 0.20 83 1017.3
20260508134005 12 106 0.0 3.2 0.15 0.20 0.20 83 1017.3
20260508133506 12 322 0.0 0.0 0.18 0.20 0.20 83 1017.6
20260508133006 11 295 0.0 0.0 0.18 0.20 0.20 83 1017.3
20260508132505 11 119 0.0 0.0 0.18 0.20 0.20 83 1017.3
20260508132005 11 87 0.0 0.0 0.20 0.20 0.20 84 1017.3
20260508131505 11 111 0.0 0.0 0.20 0.20 0.20 84 1017.3
20260508131005 11 137 0.0 0.0 0.20 0.20 0.20 84 1017.4
20260508130505 11 135 0.0 3.2 0.20 0.20 0.20 82 1017.7
20260508130005 11 139 0.0 3.2 0.20 0.20 0.20 80 1017.9
20260508125506 11 238 1.6 8.0 0.18 0.18 0.18 79 1017.9
20260508125006 11 219 3.2 8.0 0.10 0.10 0.10 77 1017.9
20260508124505 11 241 3.2 8.0 0.05 0.05 0.05 77 1017.9
20260508123505 12 211 4.8 8.0 0.03 0.03 0.03 78 1017.6
20260508123005 12 174 4.8 8.0 0.03 0.03 0.03 78 1017.6
20260508122505 12 337 0.0 3.2 0.03 0.03 0.03 79 1017.9
20260508122005 12 5 0.0 3.2 0.00 0.00 0.00 81 1017.6
20260508121506 12 63 1.6 3.2 0.00 0.00 0.00 79 1017.6
20260508121005 12 357 0.0 3.2 0.00 0.00 0.00 77 1017.6
20260508120506 12 350 0.0 0.0 0.00 0.00 0.00 77 1016.9
20260508115505 13 136 0.0 8.0 0.00 0.00 0.00 76 1016.9
20260508115005 13 101 3.2 8.0 0.00 0.00 0.00 76 1017.3
20260508114505 13 54 0.0 8.0 0.00 0.00 0.00 76 1017.3
20260508114005 13 127 3.2 8.0 0.00 0.00 0.00 76 1017.3
20260508113505 13 132 3.2 8.0 0.00 0.00 0.00 76 1016.9
20260508113006 13 89 1.6 3.2 0.00 0.00 0.00 75 1016.9
20260508112505 14 117 1.6 3.2 0.00 0.00 0.00 76 1017.3
20260508112006 15 152 1.6 3.2 0.00 0.00 0.00 75 1017.3
20260508111505 15 34 1.6 8.0 0.00 0.00 0.00 75 1016.9
20260508111005 16 111 3.2 8.0 0.00 0.00 0.00 74 1016.9
20260508110505 16 127 3.2 8.0 0.00 0.00 0.00 71 1016.9
20260508105505 16 95 1.6 3.2 0.00 0.00 0.00 63 1016.9
20260508104505 15 328 0.0 3.2 0.00 0.00 0.00 61 1016.9
20260508104006 16 151 1.6 3.2 0.00 0.00 0.00 70 1016.9
20260508103505 16 193 0.0 3.2 0.00 0.00 0.00 73 1016.9
20260508103005 16 104 0.0 0.0 0.00 0.00 0.00 72 1017.3
20260508102505 16 147 0.0 0.0 0.00 0.00 0.00 69 1017.0
20260508102005 16 161 1.6 3.2 0.00 0.00 0.00 61 1016.9
20260508101505 16 96 1.6 3.2 0.00 0.00 0.00 60 1016.9
20260508100505 16 241 3.2 12.9 0.00 0.00 0.00 58 1016.9
20260508100005 16 191 3.2 12.9 0.00 0.00 0.00 58 1016.9
20260508095505 16 221 4.8 12.9 0.00 0.00 0.00 58 1016.9
20260508095006 16 195 3.2 12.9 0.00 0.00 0.00 58 1016.9
20260508094505 16 212 1.6 8.0 0.00 0.00 0.00 58 1016.9
20260508094005 16 202 1.6 8.0 0.00 0.00 0.00 59 1016.9
20260508093505 16 214 0.0 3.2 0.00 0.00 0.00 60 1016.9
20260508093005 16 244 1.6 8.0 0.00 0.00 0.00 59 1016.9
20260508092005 16 214 1.6 3.2 0.00 0.00 0.00 60 1016.9
20260508091506 15 240 0.0 3.2 0.00 0.00 0.00 61 1016.9
20260508091005 15 63 0.0 3.2 0.00 0.00 0.00 62 1016.9
20260508090505 15 227 0.0 8.0 0.00 0.00 0.00 63 1016.9
20260508090005 15 233 3.2 8.0 0.00 0.00 0.00 63 1016.9
20260508085505 15 213 4.8 8.0 0.00 0.00 0.00 62 1016.9
20260508085005 15 221 1.6 8.0 0.00 0.00 0.00 64 1016.9
20260508084005 15 171 1.6 8.0 0.00 0.00 0.00 63 1016.9
20260508083505 15 215 1.6 12.9 0.00 0.00 0.00 64 1016.6
20260508083005 14 214 8.0 12.9 0.00 0.00 0.00 64 1016.9
20260508082505 14 177 1.6 8.0 0.00 0.00 0.00 65 1016.9
20260508082005 14 239 1.6 3.2 0.00 0.00 0.00 64 1016.9
20260508081505 13 249 1.6 3.2 0.00 0.00 0.00 66 1016.9
20260508081005 13 216 0.0 8.0 0.00 0.00 0.00 66 1016.6
20260508080505 13 235 1.6 8.0 0.00 0.00 0.00 66 1016.9
20260508080005 13 214 3.2 12.9 0.00 0.00 0.00 67 1016.6
20260508074504 12 196 0.0 3.2 0.00 0.00 0.00 69 1016.6
20260508074005 12 181 0.0 8.0 0.00 0.00 0.00 70 1016.9
20260508073505 11 211 4.8 8.0 0.00 0.00 0.00 71 1016.6
20260508072505 11 213 0.0 3.2 0.00 0.00 0.00 74 1016.6
20260508072005 10 337 4.8 8.0 0.00 0.00 0.00 76 1016.3
20260508071005 10 239 0.0 3.2 0.00 0.00 0.00 78 1016.3
20260508070505 10 200 3.2 8.0 0.00 0.00 0.00 79 1016.3
20260508070005 11 198 3.2 8.0 0.00 0.00 0.00 78 1016.3
20260508065507 11 216 1.6 8.0 0.00 0.00 0.00 78 1016.2
20260508065005 11 269 3.2 8.0 0.00 0.00 0.00 77 1015.9
20260508064505 11 276 3.2 8.0 0.00 0.00 0.00 77 1015.9
20260508064005 11 197 3.2 8.0 0.00 0.00 0.00 76 1015.9
20260508063505 10 219 4.8 16.1 0.00 0.00 0.00 76 1015.9
20260508063005 10 213 11.3 16.1 0.00 0.00 0.00 77 1015.6
20260508062505 10 203 9.7 16.1 0.00 0.00 0.00 78 1015.9
20260508062005 9 219 4.8 8.0 0.00 0.00 0.00 79 1015.6
20260508061505 9 239 3.2 8.0 0.00 0.00 0.00 80 1015.6
20260508060505 8 243 1.6 8.0 0.00 0.00 0.00 83 1015.6
20260508055506 8 216 4.8 8.0 0.00 0.00 0.00 83 1015.2
20260508055006 8 214 1.6 8.0 0.00 0.00 0.00 83 1015.2
20260508054005 8 237 3.2 8.0 0.00 0.00 0.00 84 1015.6
20260508053505 8 267 1.6 8.0 0.00 0.00 0.00 84 1015.2
20260508053005 8 214 4.8 8.0 0.00 0.00 0.00 84 1015.2
20260508052506 8 228 1.6 12.9 0.00 0.00 0.00 84 1015.2
20260508052005 8 231 8.0 12.9 0.00 0.00 0.00 83 1015.2
20260508051505 8 207 4.8 16.1 0.00 0.00 0.00 83 1014.9
20260508051006 8 216 9.7 16.1 0.00 0.00 0.00 83 1015.2
20260508050505 8 281 3.2 8.0 0.00 0.00 0.00 83 1014.9
20260508050005 8 192 4.8 16.1 0.00 0.00 0.00 83 1015.2
20260508045505 8 201 11.3 16.1 0.00 0.00 0.00 82 1015.2
20260508045005 9 288 4.8 8.0 0.00 0.00 0.00 82 1014.9
20260508044505 8 196 4.8 20.9 0.00 0.00 0.00 82 1014.9
20260508044006 8 204 4.8 20.9 0.00 0.00 0.00 82 1015.2
20260508043505 8 246 3.2 12.9 0.00 0.00 0.00 82 1015.2
20260508043005 8 219 4.8 12.9 0.00 0.00 0.00 82 1015.2
20260508042505 8 214 8.0 12.9 0.00 0.00 0.00 82 1014.9
20260508042006 8 258 8.0 16.1 0.00 0.00 0.00 82 1014.9
20260508041505 8 265 3.2 16.1 0.00 0.00 0.00 82 1014.9
20260508041005 8 196 4.8 12.9 0.00 0.00 0.00 82 1014.9
20260508040005 8 250 4.8 12.9 0.00 0.00 0.00 82 1014.6
20260508035504 8 178 4.8 8.0 0.00 0.00 0.00 82 1014.6
20260508035005 8 134 4.8 12.9 0.00 0.00 0.00 82 1014.6
20260508034506 8 200 8.0 12.9 0.00 0.00 0.00 82 1014.6
20260508032505 9 209 6.4 16.1 0.00 0.00 0.00 82 1014.9
20260508031005 9 210 8.0 12.9 0.00 0.00 0.00 82 1014.6
20260508030505 9 241 4.8 12.9 0.00 0.00 0.00 82 1014.9
20260508030005 9 300 3.2 12.9 0.00 0.00 0.00 82 1014.9
20260508025505 9 198 4.8 32.2 0.00 0.00 0.00 82 1014.6
20260508025005 9 198 11.3 32.2 0.00 0.00 0.00 82 1014.6
20260508024005 9 236 4.8 12.9 0.00 0.00 0.00 82 1014.9
20260508023005 9 235 1.6 12.9 0.00 0.00 0.00 81 1014.9
20260508022505 9 195 8.0 12.9 0.00 0.00 0.00 81 1014.9
20260508022005 9 211 9.7 12.9 0.00 0.00 0.00 81 1014.9
20260508021505 10 247 4.8 12.9 0.00 0.00 0.00 81 1014.6
20260508021006 10 263 9.7 12.9 0.00 0.00 0.00 81 1014.6
20260508020505 10 201 4.8 20.9 0.00 0.00 0.00 80 1014.6
20260508020005 10 230 11.3 20.9 0.00 0.00 0.00 80 1014.6
20260508015005 10 203 8.0 16.1 0.00 0.00 0.00 79 1014.6
20260508014505 10 214 8.0 16.1 0.00 0.00 0.00 79 1014.9
20260508014006 10 169 8.0 16.1 0.00 0.00 0.00 78 1014.9
20260508013505 10 244 8.0 16.1 0.00 0.00 0.00 78 1014.9
20260508012504 10 189 4.8 12.9 0.00 0.00 0.00 77 1014.9
20260508011505 10 182 8.0 12.9 0.00 0.00 0.00 77 1014.9
20260508010506 10 214 6.4 16.1 0.00 0.00 0.00 77 1015.1
20260508010005 10 213 3.2 12.9 0.00 0.00 0.00 77 1014.9
20260508005005 10 215 4.8 12.9 0.00 0.00 0.00 77 1014.9
20260508004505 10 235 4.8 12.9 0.00 0.00 0.00 77 1014.9
20260508004005 10 270 3.2 8.0 0.00 0.00 0.00 77 1014.9
20260508003005 10 167 8.0 16.1 0.00 0.00 0.00 77 1014.9
20260508002504 10 200 1.6 8.0 0.00 0.00 0.00 76 1015.2
20260508002005 10 184 4.8 8.0 0.00 0.00 0.00 76 1014.9
20260508001505 10 351 1.6 8.0 0.00 0.00 0.00 76 1014.9
20260508000506 10 190 3.2 16.1 0.00 0.00 0.00 76 1014.9
20260508000005 10 226 9.7 16.1 0.00 0.00 0.00 76 1014.9
20260507235005 10 217 1.6 8.0 0.00 0.00 0.00 75 1014.9
20260507234505 10 197 3.2 12.9 0.00 0.00 0.00 75 1014.6
20260507233505 11 245 4.8 12.9 0.00 0.00 0.00 75 1014.9
20260507233005 11 193 4.8 8.0 0.00 0.00 0.00 75 1014.9
20260507232505 11 286 0.0 3.2 0.00 0.00 0.00 75 1014.6
20260507232005 11 231 3.2 12.9 0.00 0.00 0.00 75 1014.9
20260507231505 11 212 8.0 12.9 0.00 0.00 0.00 75 1015.2
20260507231006 11 215 4.8 8.0 0.00 0.00 0.00 74 1014.9
20260507230505 11 183 1.6 3.2 0.00 0.00 0.00 75 1014.9
20260507225504 11 193 1.6 12.9 0.00 0.00 0.00 74 1014.9
20260507225005 11 214 9.7 12.9 0.00 0.00 0.00 75 1014.9
20260507224505 11 235 3.2 3.2 0.00 0.00 0.00 75 1014.9
20260507224005 11 210 1.6 3.2 0.00 0.00 0.00 75 1014.9
20260507223006 11 277 0.0 8.0 0.00 0.00 0.00 75 1014.9
20260507222505 11 147 1.6 8.0 0.00 0.00 0.00 75 1014.9
20260507222005 11 191 0.0 3.2 0.00 0.00 0.00 75 1014.9
20260507221506 11 203 4.8 12.9 0.00 0.00 0.00 75 1014.9
20260507221005 11 208 1.6 12.9 0.00 0.00 0.00 75 1015.2
20260507220505 11 240 0.0 3.2 0.00 0.00 0.00 75 1015.0
20260507220005 11 289 3.2 3.2 0.00 0.00 0.00 75 1014.9
20260507215505 11 329 3.2 8.0 0.00 0.00 0.00 75 1014.9
20260507215005 11 30 3.2 8.0 0.00 0.00 0.00 75 1014.9
20260507214505 11 309 3.2 8.0 0.00 0.00 0.00 75 1014.9
20260507214005 11 80 3.2 8.0 0.00 0.00 0.00 75 1015.2
20260507213005 11 21 1.6 3.2 0.00 0.00 0.00 76 1014.9
20260507212505 11 205 0.0 3.2 0.00 0.00 0.00 76 1014.9
20260507212005 11 280 0.0 0.0 0.00 0.00 0.00 76 1014.9
20260507211505 11 308 0.0 3.2 0.00 0.00 0.00 76 1015.2
20260507211005 11 93 0.0 3.2 0.00 0.00 0.00 76 1014.9
20260507210505 11 68 1.6 3.2 0.00 0.00 0.00 76 1014.9
20260507210005 11 312 0.0 0.0 0.00 0.00 0.00 76 1014.9
20260507205006 11 239 1.6 3.2 0.00 0.00 0.00 76 1014.9
20260507204505 11 62 0.0 3.2 0.00 0.00 0.00 75 1014.9
20260507204005 11 254 0.0 3.2 0.00 0.00 0.00 75 1014.9
20260507203006 11 165 1.6 3.2 0.00 0.00 0.00 74 1014.9
20260507201005 11 109 1.6 3.2 0.00 0.00 0.00 71 1014.6
20260507195506 11 9 0.0 0.0 0.00 0.00 0.00 70 1014.6
20260507194505 11 102 0.0 0.0 0.00 0.00 0.00 71 1014.6
20260507194006 11 57 0.0 3.2 0.00 0.00 0.00 71 1014.6
20260507193506 11 116 0.0 3.2 0.00 0.00 0.00 72 1014.6
20260507193005 11 96 0.0 0.0 0.00 0.00 0.00 72 1014.6
20260507192505 11 355 0.0 0.0 0.00 0.00 0.00 72 1014.6
20260507192005 12 31 0.0 0.0 0.00 0.00 0.00 71 1014.2
20260507191505 12 172 0.0 0.0 0.00 0.00 0.00 71 1014.2
20260507191005 12 242 0.0 0.0 0.00 0.00 0.00 71 1014.2
20260507190505 12 282 0.0 0.0 0.00 0.00 0.00 71 1014.2
20260507190006 12 25 1.6 3.2 0.00 0.00 0.00 71 1014.2
20260507185505 12 147 0.0 3.2 0.00 0.00 0.00 70 1014.2
20260507185005 12 228 3.2 12.9 0.00 0.00 0.00 70 1014.4
20260507184505 12 245 3.2 12.9 0.00 0.00 0.00 70 1014.5
20260507184006 12 240 0.0 3.2 0.00 0.00 0.00 71 1014.2
20260507183505 12 307 0.0 3.2 0.00 0.00 0.00 70 1014.2
20260507183005 12 261 0.0 3.2 0.00 0.00 0.00 70 1014.2
20260507182506 12 276 0.0 3.2 0.00 0.00 0.00 70 1014.2
20260507182005 12 316 0.0 3.2 0.00 0.00 0.00 70 1014.2
20260507181505 12 314 0.0 3.2 0.00 0.00 0.00 70 1014.6
20260507181005 12 131 1.6 8.0 0.00 0.00 0.00 70 1014.2
20260507180505 12 220 3.2 8.0 0.00 0.00 0.00 70 1014.2
20260507180007 12 105 0.0 8.0 0.00 0.00 0.00 70 1014.2
20260507175005 12 47 1.6 3.2 0.00 0.00 0.00 70 1014.2
20260507174505 12 337 0.0 0.0 0.00 0.00 0.00 71 1014.2
20260507174005 12 215 0.0 0.0 0.00 0.00 0.00 72 1014.2
20260507173506 12 213 0.0 16.1 0.00 0.00 0.00 71 1014.6
20260507173005 12 229 8.0 16.1 0.00 0.00 0.00 71 1014.6
20260507172505 12 248 1.6 8.0 0.00 0.00 0.00 71 1014.2
20260507172005 12 246 3.2 8.0 0.00 0.00 0.00 70 1014.6
20260507171505 12 279 0.0 3.2 0.00 0.00 0.00 70 1014.6
20260507171005 12 253 1.6 16.1 0.00 0.00 0.00 70 1014.6
20260507170505 12 188 9.7 16.1 0.00 0.00 0.00 70 1014.6
20260507170006 12 193 1.6 12.9 0.00 0.00 0.00 70 1014.6
20260507165505 11 280 9.7 12.9 0.00 0.00 0.00 70 1014.6
20260507165005 11 242 4.8 8.0 0.00 0.00 0.00 70 1014.6
20260507164504 11 222 3.2 8.0 0.00 0.00 0.00 71 1014.6
20260507164005 11 175 3.2 8.0 0.00 0.00 0.00 71 1014.6
20260507163505 11 136 0.0 8.0 0.00 0.00 0.00 71 1014.9
20260507163005 11 187 3.2 12.9 0.00 0.00 0.00 71 1014.6
20260507162504 11 287 3.2 12.9 0.00 0.00 0.00 71 1014.9
20260507161006 11 183 4.8 8.0 0.00 0.00 0.00 72 1014.9
20260507160506 11 207 4.8 12.9 0.00 0.00 0.00 72 1014.6
20260507160005 11 220 9.7 16.1 0.00 0.00 0.00 72 1014.6
20260507155504 11 209 8.0 16.1 0.00 0.00 0.00 72 1014.6
20260507155005 11 185 6.4 12.9 0.00 0.00 0.00 72 1014.6
20260507154506 11 165 1.6 8.0 0.00 0.00 0.00 72 1014.7
20260507154006 11 331 4.8 16.1 0.00 0.00 0.00 71 1014.9
20260507153505 11 184 4.8 16.1 0.00 0.00 0.00 71 1014.9
20260507153005 11 241 3.2 8.0 0.00 0.00 0.00 71 1014.6
20260507152006 12 160 8.0 16.1 0.00 0.00 0.00 71 1014.6
20260507151504 12 280 9.7 16.1 0.00 0.00 0.00 71 1014.6
20260507151005 12 217 8.0 12.9 0.00 0.00 0.00 70 1014.6
20260507150506 12 254 3.2 8.0 0.00 0.00 0.00 71 1014.9
20260507150005 12 278 3.2 8.0 0.00 0.00 0.00 70 1014.6
20260507145505 12 354 4.8 16.1 0.00 0.00 0.00 70 1014.6
20260507145007 12 182 8.0 16.1 0.00 0.00 0.00 70 1014.9
20260507144505 12 290 4.8 16.1 0.00 0.00 0.00 70 1014.6
20260507144006 12 255 9.7 16.1 0.00 0.00 0.00 70 1014.9
20260507143505 13 205 3.2 16.1 0.00 0.00 0.00 69 1014.6